CW1459 Weather Reports


time (UTC)temp
F
wind
direction
speed
knots
gust
knots
rain 1hr
in
rain 24hr
in
rain mn
in
humidity
%
barometer
mb
20260505173334 82 187 7.8 15.6 0.00 0.00 0.00 34 1008.0
20260505172321 82 191 7.8 14.8 0.00 0.00 0.00 36 1008.0
20260505171315 83 150 7.8 16.5 0.00 0.00 0.00 33 1008.1
20260505170316 83 219 6.1 18.2 0.00 0.00 0.00 35 1008.2
20260505165319 82 135 7.8 16.5 0.00 0.00 0.00 37 1008.3
20260505164313 81 198 7.8 18.2 0.00 0.00 0.00 38 1008.5
20260505163313 81 163 8.7 17.4 0.00 0.00 0.00 36 1008.6
20260505162336 81 232 8.7 17.4 0.00 0.00 0.00 38 1008.8
20260505161313 80 202 9.6 13.9 0.00 0.00 0.00 39 1009.1
20260505160315 80 192 4.3 18.2 0.00 0.00 0.00 42 1009.2
20260505153316 79 194 5.2 13.9 0.00 0.00 0.00 40 1009.3
20260505152358 79 208 8.7 14.8 0.00 0.00 0.00 40 1009.3
20260505151327 78 190 7.0 12.2 0.00 0.00 0.00 43 1009.5
20260505150328 79 163 6.1 15.6 0.00 0.00 0.00 40 1009.3
20260505140326 75 207 3.5 11.3 0.00 0.00 0.00 48 1009.3
20260505124334 68 200 6.1 9.6 0.00 0.00 0.00 53 1010.1
20260505123316 68 205 5.2 9.6 0.00 0.00 0.00 54 1010.1
20260505122313 67 225 3.5 8.7 0.00 0.00 0.00 55 1010.3
20260505121312 66 138 7.0 12.2 0.00 0.00 0.00 56 1010.3
20260505120330 65 212 6.1 13.0 0.00 0.00 0.00 57 1010.3
20260505115313 64 192 5.2 10.4 0.00 0.00 0.00 58 1010.3
20260505114334 64 219 5.2 12.2 0.00 0.00 0.00 59 1010.0
20260505113335 63 165 3.5 6.1 0.00 0.00 0.00 60 1009.9
20260505112318 63 206 2.6 6.1 0.00 0.00 0.00 60 1009.7
20260505111346 62 140 4.3 7.8 0.00 0.00 0.00 60 1009.6
20260505110329 62 203 3.5 7.0 0.00 0.00 0.00 60 1009.4
20260505101320 63 154 5.2 7.8 0.00 0.00 0.00 58 1008.9
20260505100314 63 121 6.1 8.7 0.00 0.00 0.00 58 1008.8
20260505095331 63 146 4.3 8.7 0.00 0.00 0.00 58 1008.8
20260505094312 63 146 5.2 9.6 0.00 0.00 0.00 59 1008.8
20260505093313 63 195 3.5 7.8 0.00 0.00 0.00 58 1008.9
20260505092336 64 208 6.1 7.8 0.00 0.00 0.00 58 1008.8
20260505091312 63 177 6.1 9.6 0.00 0.00 0.00 59 1008.7
20260505090329 63 192 3.5 7.8 0.00 0.00 0.00 60 1008.7
20260505085316 63 193 3.5 8.7 0.00 0.00 0.00 60 1008.7
20260505084336 63 148 2.6 7.0 0.00 0.00 0.00 59 1008.6
20260505083320 64 158 6.1 9.6 0.00 0.00 0.00 59 1008.5
20260505082319 63 190 5.2 10.4 0.00 0.00 0.00 60 1008.4
20260505081323 63 157 4.3 10.4 0.00 0.00 0.00 60 1008.4
20260505080317 63 183 4.3 9.6 0.00 0.00 0.00 60 1008.4
20260505075328 63 143 4.3 8.7 0.00 0.00 0.00 60 1008.4
20260505074402 64 134 5.2 8.7 0.00 0.00 0.00 59 1008.3
20260505073318 64 217 5.2 8.7 0.00 0.00 0.00 59 1008.2
20260505072338 64 138 6.1 9.6 0.00 0.00 0.00 58 1008.2
20260505071341 63 141 6.1 9.6 0.00 0.00 0.00 60 1008.1
20260505070318 62 147 4.3 9.6 0.00 0.00 0.00 62 1008.1
20260505065328 60 145 5.2 8.7 0.00 0.00 0.00 65 1008.0
20260505064316 59 156 2.6 6.1 0.00 0.00 0.00 68 1008.2
20260505063344 58 177 1.7 3.5 0.00 0.00 0.00 70 1008.3
20260505062315 58 175 0.9 2.6 0.00 0.00 0.00 72 1008.3
20260505061317 58 191 0.0 0.9 0.00 0.00 0.00 71 1008.4
20260505060322 59 191 0.0 1.7 0.00 0.00 0.00 68 1008.4
20260505055318 61 191 0.0 1.7 0.00 0.00 0.00 65 1008.3
20260505054317 62 191 0.0 1.7 0.00 0.00 0.00 62 1008.4
20260505053317 63 191 1.7 7.0 0.00 0.00 0.00 60 1008.4
20260505052340 63 168 3.5 7.0 0.00 0.00 0.00 60 1008.4
20260505051341 63 161 4.3 7.0 0.00 0.00 0.00 60 1008.4
20260505050320 63 155 4.3 10.4 0.00 0.00 0.00 61 1008.4
20260505041341 65 158 5.2 10.4 0.00 0.00 0.00 59 1008.3
20260505040320 65 149 4.3 9.6 0.00 0.00 0.00 59 1008.3
20260505035331 65 176 5.2 9.6 0.00 0.00 0.00 59 1008.3
20260505034327 65 115 3.5 7.0 0.00 0.00 0.00 58 1008.2
20260505033401 65 154 3.5 9.6 0.00 0.00 0.00 57 1008.2
20260505032316 66 163 5.2 9.6 0.00 0.00 0.00 56 1008.3
20260505031338 66 150 4.3 9.6 0.00 0.00 0.00 56 1008.3
20260505030316 66 180 5.2 9.6 0.00 0.00 0.00 55 1008.4
20260505025317 66 179 6.1 11.3 0.00 0.00 0.00 55 1008.4
20260505024317 66 172 4.3 8.7 0.00 0.00 0.00 55 1008.4
20260505023339 66 143 3.5 7.0 0.00 0.00 0.00 55 1008.4
20260505022336 66 199 3.5 7.0 0.00 0.00 0.00 55 1008.3
20260505021339 66 171 3.5 7.0 0.00 0.00 0.00 55 1008.3
20260505020319 66 201 2.6 6.1 0.00 0.00 0.00 54 1008.3
20260505015319 67 150 2.6 6.1 0.00 0.00 0.00 53 1008.2
20260505014320 68 184 3.5 8.7 0.00 0.00 0.00 51 1008.1
20260505013339 69 163 3.5 8.7 0.00 0.00 0.00 49 1008.0
20260505012353 69 176 5.2 8.7 0.00 0.00 0.00 49 1007.7
20260505011337 69 218 5.2 8.7 0.00 0.00 0.00 48 1007.8
20260505010333 70 159 4.3 7.8 0.00 0.00 0.00 47 1007.7
20260505005337 70 165 5.2 8.7 0.00 0.00 0.00 46 1007.4
20260505004317 70 160 4.3 10.4 0.00 0.00 0.00 46 1007.2
20260505003354 70 161 4.3 8.7 0.00 0.00 0.00 46 1007.1
20260505002338 70 168 4.3 10.4 0.00 0.00 0.00 44 1007.1
20260505001330 70 177 3.5 10.4 0.00 0.00 0.00 44 1007.0
20260505000319 71 156 5.2 10.4 0.00 0.00 0.00 44 1006.9
20260504235320 71 177 6.1 12.2 0.00 0.00 0.00 43 1006.8
20260504234336 72 184 4.3 11.3 0.00 0.00 0.00 42 1006.9
20260504233333 73 134 6.1 9.6 0.00 0.00 0.00 40 1006.7
20260504232336 73 165 5.2 11.3 0.00 0.00 0.00 40 1006.7
20260504231357 74 207 6.1 11.3 0.00 0.00 0.00 40 1006.7
20260504230321 74 190 3.5 13.0 0.00 0.00 0.00 40 1006.8
20260504225334 74 103 6.1 12.2 0.00 0.00 0.00 39 1006.7
20260504224348 75 223 6.1 12.2 0.00 0.00 0.00 38 1006.8
20260504223314 74 160 6.1 11.3 0.00 0.00 0.00 39 1006.8
20260504222315 74 166 7.0 14.8 0.00 0.00 0.00 38 1006.8
20260504221335 74 200 4.3 13.9 0.00 0.00 0.00 39 1006.8
20260504220315 75 171 5.2 10.4 0.00 0.00 0.00 38 1006.8
20260504215322 76 142 4.3 13.0 0.00 0.00 0.00 38 1006.8
20260504214335 75 153 4.3 10.4 0.00 0.00 0.00 38 1006.8
20260504213325 75 167 5.2 12.2 0.00 0.00 0.00 37 1006.8
20260504212332 76 194 4.3 10.4 0.00 0.00 0.00 38 1006.8
20260504211336 76 154 3.5 14.8 0.00 0.00 0.00 38 1006.8
20260504210329 77 145 7.0 13.9 0.00 0.00 0.00 34 1006.9
20260504205354 78 192 5.2 9.6 0.00 0.00 0.00 33 1006.7
20260504204339 77 243 5.2 13.0 0.00 0.00 0.00 36 1006.8
20260504203353 76 194 7.8 13.9 0.00 0.00 0.00 36 1006.9
20260504202339 75 202 6.1 9.6 0.00 0.00 0.00 36 1007.1
20260504201315 77 205 3.5 11.3 0.00 0.00 0.00 36 1007.1
20260504200317 76 179 6.1 13.0 0.00 0.00 0.00 38 1007.4
20260504195339 76 178 4.3 10.4 0.00 0.00 0.00 36 1007.6
20260504194314 76 211 5.2 11.3 0.00 0.00 0.00 36 1007.6
20260504193318 76 218 4.3 10.4 0.00 0.00 0.00 37 1008.0
20260504192317 75 154 6.1 11.3 0.00 0.00 0.00 36 1008.2
20260504191340 76 186 4.3 13.9 0.00 0.00 0.00 36 1008.3
20260504190338 75 215 4.3 9.6 0.00 0.00 0.00 38 1008.3
20260504185331 76 252 4.3 9.6 0.00 0.00 0.00 37 1008.5
20260504184314 75 166 6.1 11.3 0.00 0.00 0.00 39 1008.7
20260504183314 74 186 3.5 12.2 0.00 0.00 0.00 38 1008.8
20260504182332 76 188 6.1 13.0 0.00 0.00 0.00 39 1009.1
20260504181336 75 209 5.2 12.2 0.00 0.00 0.00 36 1009.2
20260504180337 75 154 7.0 13.0 0.00 0.00 0.00 37 1009.4
20260504175333 74 130 7.0 14.8 0.00 0.00 0.00 38 1009.5
20260504174338 74 138 4.3 9.6 0.00 0.00 0.00 41 1009.5